Location: Newark
(12.4436°N, 0.6167°W)
Time: 02:53:25
(UTC+00:00)

Vanguard 2 - Pass Details

Date: 11 December 2019
Orbit: 553 x 2938 km, 32.9° (Epoch: 17 January)

Event Time Altitude Azimuth Distance (km) Brightness Sun altitude
Rises 06:11:08 0° 303° (WNW) 6,788 - -1.3°
Exits shadow 06:11:19 - 303° (WNW) 6,750 11.7 -1.3°
Reaches altitude 10° 06:16:06 10° 309° (NW) 5,739 11.4 -0.2°
Maximum altitude 06:32:38 49° 20° (NNE) 2,936 10.5 3.5°
Drops below altitude 10° 06:44:10 10° 92° (E) 4,138 12.8 6.0°
Sets 06:47:05 0° 98° (E) 4,839 13.3 6.7°
